When you browse on this site, cookies collect data to enhance your experience and personalize the content and advertising you see.
Visit our Privacy Policy to learn more. By continuing to use the site, you agree to this use of cookies and data.
  • In United Kingdom
  • List of Countries
  • For 7 days
  • Water Temperature
  • Satellite Maps
  • Weather Map
  • Weather Widgets
  • user-avatar
    Login

    Hourly Weather Thimphu

    Today, 15 July, Monday

    Time Temperature Precipitation Wind Pressure Humidity
    00:00 +11°C° 0 mm 0 mps 521 mmHg 98%
    01:00 +11°C° 0.4 mm 0 mps 521 mmHg 98%
    02:00 +11°C° 0.4 mm 0 mps 521 mmHg 98%
    03:00 +12°C° 0.4 mm 1 mps 521 mmHg 99%
    04:00 +11°C° 0.1 mm 0 mps 521 mmHg 98%
    05:00 +11°C° 0.1 mm 0 mps 520 mmHg 98%
    06:00 +11°C° 0 mm 0 mps 521 mmHg 97%
    07:00 +11°C° 0.1 mm 0 mps 521 mmHg 95%
    08:00 +13°C° 0.1 mm 1 mps 522 mmHg 94%
    09:00 +14°C° 0.1 mm 1 mps 523 mmHg 92%
    10:00 +14°C° 0.4 mm 1 mps 523 mmHg 90%
    11:00 +15°C° 0.4 mm 1 mps 523 mmHg 88%
    12:00 +16°C° 0 mm 1 mps 524 mmHg 85%
    13:00 +15°C° 0.6 mm 1 mps 523 mmHg 88%
    14:00 +15°C° 0.6 mm 1 mps 523 mmHg 90%
    15:00 +14°C° 0.6 mm 2 mps 522 mmHg 93%
    16:00 +14°C° 0.2 mm 1 mps 522 mmHg 94%
    17:00 +13°C° 0.2 mm 1 mps 521 mmHg 96%
    18:00 +13°C° 0 mm 1 mps 521 mmHg 97%
    19:00 +13°C° 0.1 mm 1 mps 522 mmHg 97%
    20:00 +12°C° 0.1 mm 1 mps 522 mmHg 98%
    21:00 +12°C° 0.1 mm 1 mps 522 mmHg 98%
    22:00 +11°C° 0.1 mm 0 mps 522 mmHg 98%
    23:00 +11°C° 0.1 mm 0 mps 522 mmHg 97%

    Tomorrow, 16 July, Tuesday

    Time Temperature Precipitation Wind Pressure Humidity
    00:00 +11°C° 0.1 mm 0 mps 522 mmHg 97%
    01:00 +11°C° 0.2 mm 0 mps 522 mmHg 97%
    02:00 +10°C° 0.2 mm 0 mps 522 mmHg 97%
    03:00 +10°C° 0.2 mm 0 mps 521 mmHg 97%
    04:00 +10°C° 0.3 mm 0 mps 522 mmHg 97%
    05:00 +11°C° 0.3 mm 0 mps 522 mmHg 97%
    06:00 +11°C° 0.3 mm 0 mps 522 mmHg 97%
    07:00 +11°C° 0.2 mm 0 mps 523 mmHg 96%
    08:00 +12°C° 0.2 mm 0 mps 523 mmHg 95%
    09:00 +13°C° 0.2 mm 1 mps 524 mmHg 94%
    10:00 +14°C° 0.4 mm 1 mps 524 mmHg 89%
    11:00 +16°C° 0.4 mm 1 mps 525 mmHg 85%
    12:00 +17°C° 0.4 mm 2 mps 525 mmHg 81%
    13:00 +17°C° 0.6 mm 2 mps 525 mmHg 81%
    14:00 +17°C° 0.6 mm 2 mps 525 mmHg 81%
    15:00 +17°C° 0.6 mm 2 mps 524 mmHg 81%
    16:00 +16°C° 0.4 mm 2 mps 524 mmHg 85%
    17:00 +15°C° 0.4 mm 1 mps 523 mmHg 89%
    18:00 +14°C° 0.4 mm 1 mps 523 mmHg 93%
    19:00 +13°C° 0.1 mm 1 mps 522 mmHg 94%
    20:00 +13°C° 0.1 mm 1 mps 522 mmHg 95%
    21:00 +11°C° 0.1 mm 0 mps 522 mmHg 97%
    22:00 +10°C° 0 mm 0 mps 522 mmHg 96%
    23:00 +10°C° 0 mm 0 mps 522 mmHg 96%

    Day after tomorrow, 17 July, Wednesday

    Time Temperature Precipitation Wind Pressure Humidity
    00:00 +10°C° 0 mm 0 mps 522 mmHg 95%
    01:00 +10°C° 0 mm 0 mps 522 mmHg 95%
    02:00 +10°C° 0 mm 0 mps 522 mmHg 95%
    03:00 +10°C° 0 mm 0 mps 522 mmHg 95%
    04:00 +10°C° 0 mm 0 mps 522 mmHg 94%
    05:00 +11°C° 0 mm 0 mps 523 mmHg 94%
    06:00 +11°C° 0 mm 0 mps 523 mmHg 93%
    07:00 +13°C° 0 mm 0 mps 524 mmHg 87%
    08:00 +15°C° 0 mm 1 mps 525 mmHg 80%
    09:00 +18°C° 0 mm 1 mps 526 mmHg 74%
    10:00 +19°C° 0.3 mm 1 mps 527 mmHg 72%
    11:00 +19°C° 0.3 mm 2 mps 527 mmHg 71%
    12:00 +20°C° 0.3 mm 2 mps 527 mmHg 69%
    13:00 +19°C° 0.9 mm 2 mps 526 mmHg 75%
    14:00 +18°C° 0.9 mm 2 mps 525 mmHg 80%
    15:00 +17°C° 0.9 mm 2 mps 524 mmHg 86%
    16:00 +17°C° 0.8 mm 2 mps 524 mmHg 89%
    17:00 +16°C° 0.8 mm 1 mps 524 mmHg 91%
    18:00 +15°C° 0.8 mm 1 mps 523 mmHg 94%
    19:00 +14°C° 0.1 mm 1 mps 523 mmHg 95%
    20:00 +14°C° 0.1 mm 1 mps 523 mmHg 96%
    21:00 +12°C° 0.1 mm 0 mps 523 mmHg 97%
    22:00 +12°C° 0.1 mm 0 mps 523 mmHg 97%
    23:00 +12°C° 0.1 mm 0 mps 523 mmHg 96%

    18 July, Thursday

    Time Temperature Precipitation Wind Pressure Humidity
    00:00 +11°C° 0.1 mm 0 mps 523 mmHg 96%
    01:00 +11°C° 0 mm 0 mps 523 mmHg 95%
    02:00 +11°C° 0 mm 0 mps 523 mmHg 95%
    03:00 +11°C° 0 mm 0 mps 522 mmHg 94%
    04:00 +11°C° 0 mm 0 mps 523 mmHg 94%
    05:00 +11°C° 0 mm 0 mps 523 mmHg 93%
    06:00 +11°C° 0 mm 0 mps 523 mmHg 92%
    07:00 +14°C° 0.1 mm 1 mps 524 mmHg 88%
    08:00 +16°C° 0.1 mm 1 mps 525 mmHg 85%
    09:00 +18°C° 0.1 mm 1 mps 526 mmHg 81%
    10:00 +19°C° 0.8 mm 1 mps 526 mmHg 82%
    11:00 +18°C° 0.8 mm 2 mps 526 mmHg 84%
    12:00 +18°C° 0.8 mm 2 mps 526 mmHg 86%
    13:00 +18°C° 1.5 mm 2 mps 525 mmHg 86%
    14:00 +18°C° 1.5 mm 2 mps 525 mmHg 87%
    15:00 +18°C° 1.5 mm 2 mps 525 mmHg 87%
    16:00 +18°C° 0.9 mm 1 mps 524 mmHg 89%
    17:00 +16°C° 0.9 mm 1 mps 524 mmHg 91%
    18:00 +16°C° 0.9 mm 1 mps 524 mmHg 93%
    19:00 +14°C° 0.1 mm 0 mps 524 mmHg 94%
    20:00 +13°C° 0.1 mm 0 mps 524 mmHg 95%
    21:00 +12°C° 0.1 mm 0 mps 524 mmHg 96%
    22:00 +12°C° 0 mm 0 mps 524 mmHg 96%
    23:00 +12°C° 0 mm 0 mps 523 mmHg 96%

    19 July, Friday

    Time Temperature Precipitation Wind Pressure Humidity
    00:00 +12°C° 0 mm 0 mps 523 mmHg 96%
    01:00 +12°C° 0 mm 0 mps 523 mmHg 96%
    02:00 +12°C° 0 mm 0 mps 523 mmHg 96%
    03:00 +12°C° 0 mm 0 mps 523 mmHg 96%
    04:00 +12°C° 0.1 mm 0 mps 524 mmHg 95%
    05:00 +12°C° 0.1 mm 0 mps 524 mmHg 95%
    06:00 +12°C° 0.1 mm 0 mps 524 mmHg 94%
    07:00 +14°C° 0.2 mm 0 mps 526 mmHg 89%
    08:00 +18°C° 0.2 mm 1 mps 527 mmHg 85%
    09:00 +19°C° 0.2 mm 1 mps 528 mmHg 80%
    10:00 +20°C° 0.9 mm 1 mps 528 mmHg 80%
    11:00 +19°C° 0.9 mm 2 mps 527 mmHg 80%
    12:00 +20°C° 0.9 mm 2 mps 527 mmHg 79%
    13:00 +19°C° 1.2 mm 2 mps 527 mmHg 80%
    14:00 +19°C° 1.2 mm 2 mps 526 mmHg 81%
    15:00 +19°C° 1.2 mm 2 mps 526 mmHg 82%
    16:00 +19°C° 0.8 mm 1 mps 525 mmHg 85%
    17:00 +18°C° 0.8 mm 1 mps 525 mmHg 89%
    18:00 +16°C° 0.8 mm 1 mps 524 mmHg 93%
    19:00 +15°C° 0.2 mm 1 mps 524 mmHg 94%
    20:00 +15°C° 0.2 mm 1 mps 524 mmHg 96%
    21:00 +13°C° 0.2 mm 0 mps 524 mmHg 98%
    22:00 +13°C° 0.1 mm 0 mps 524 mmHg 97%
    23:00 +12°C° 0.1 mm 0 mps 524 mmHg 97%

    20 July, Saturday

    Time Temperature Precipitation Wind Pressure Humidity
    00:00 +12°C° 0.1 mm 0 mps 524 mmHg 97%
    01:00 +12°C° 0.1 mm 0 mps 524 mmHg 96%
    02:00 +12°C° 0.1 mm 0 mps 524 mmHg 96%
    03:00 +12°C° 0.1 mm 0 mps 524 mmHg 96%
    04:00 +12°C° 0.1 mm 0 mps 524 mmHg 96%
    05:00 +12°C° 0.1 mm 0 mps 524 mmHg 95%
    06:00 +12°C° 0.1 mm 0 mps 524 mmHg 95%
    07:00 +15°C° 0.1 mm 1 mps 525 mmHg 91%
    08:00 +16°C° 0.1 mm 1 mps 526 mmHg 87%
    09:00 +19°C° 0.1 mm 1 mps 527 mmHg 83%
    10:00 +19°C° 0.6 mm 1 mps 527 mmHg 82%
    11:00 +20°C° 0.6 mm 1 mps 526 mmHg 82%
    12:00 +19°C° 0.6 mm 2 mps 526 mmHg 82%
    13:00 +19°C° 1.2 mm 2 mps 526 mmHg 84%
    14:00 +18°C° 1.2 mm 2 mps 525 mmHg 87%
    15:00 +18°C° 1.2 mm 2 mps 524 mmHg 89%
    16:00 +17°C° 0.7 mm 2 mps 524 mmHg 91%
    17:00 +16°C° 0.7 mm 2 mps 523 mmHg 94%
    18:00 +16°C° 0.7 mm 1 mps 523 mmHg 96%
    19:00 +15°C° 0.2 mm 1 mps 523 mmHg 97%
    20:00 +15°C° 0.2 mm 1 mps 523 mmHg 97%
    21:00 +13°C° 0.2 mm 0 mps 524 mmHg 97%
    22:00 +13°C° 0.2 mm 0 mps 524 mmHg 97%
    23:00 +14°C° 0.2 mm 1 mps 524 mmHg 97%
    Show more